Regional Weather Roundup
Issued by NWS

Home | Current Version | Previous Version | Graphics & Text | Print | Product List | Glossary On
Versions: 1 2 3 4 5 6 7 8 9 10 11 12 13 14 15 16 17 18 19 20 21 22 23 24 25 26 27 28 29 30 31 32 33 34 35 36 37 38 39 40 41 42 43 44 45 46 47 48 49 50
000
ASUS43 KMKX 162121
RWRWI

WISCONSIN REGIONAL WEATHER ROUNDUP
NATIONAL WEATHER SERVICE MILWAUKEE/SULLIVAN WI
400 PM CDT WED AUG 16 2017

NOTE: "FAIR" INDICATES FEW OR NO CLOUDS BELOW 12,000 FEET WITH NO
SIGNIFICANT WEATHER AND/OR OBSTRUCTIONS TO VISIBILITY.

WIZ001-002-006>008-014>016-023>028-162200-
NORTHWEST WISCONSIN

CITY           SKY/WX    TMP DP  RH WIND       PRES   REMARKS
SUPERIOR ARPT    N/A     63  61  95 NE14G21   29.91F
ASHLAND        CLOUDY    71  62  73 NE13      29.92F
HAYWARD        CLOUDY    74  62  66 E10       29.90F
SIREN          CLOUDY    74  64  71 E6        29.85F
CUMBERLAND     CLOUDY    73  63  68 E10       29.86F
RICE LAKE      CLOUDY    76  65  68 E9        29.87F
CHETEK         CLOUDY    76  67  71 MISG      29.87F
LADYSMITH      CLOUDY    76  63  64 SE8       29.92S
EAU CLAIRE     CLOUDY    80  66  62 E14G21    29.84F HX  82
MENOMONIE      PTSUNNY   80  67  66 E15       29.84F HX  82
NEW RICHMOND   CLOUDY    76  66  69 E9        29.83F
OSCEOLA        CLOUDY    76  67  73 SE12      29.85F
$$

WIZ003>005-009-010-017-018-162200-
NORTH CENTRAL WISCONSIN

CITY           SKY/WX    TMP DP  RH WIND       PRES   REMARKS
MANITOWISH WTR CLOUDY    72  60  64 SE6       29.96F
ARBOR VITAE    PTSUNNY   77  62  60 SE7       29.96F
WOODRUFF       PTSUNNY   77  62  60 SE7       29.96F
RHINELANDER    MOSUNNY   76  60  57 SE10      29.97F
EAGLE RIVER    CLOUDY    75  55  49 SE8G17    29.96F
LAND O LAKES   MOSUNNY   76  54  46 SE6       29.98F
PHILLIPS       CLOUDY    74  63  67 SE8       29.92F
TOMAHAWK         N/A     75  60  60 E6        29.95F
MEDFORD        CLOUDY    73  63  70 SE8       29.93S
MERRILL        NOT AVBL
$$

WIZ029-030-035-036-043>047-162200-
CENTRAL WISCONSIN

CITY           SKY/WX    TMP DP  RH WIND       PRES   REMARKS
WAUSAU         CLOUDY    75  62  64 SE13      29.92F
MOSINEE        MOSUNNY   75  63  64 E8        29.95F
MARSHFIELD     CLOUDY    77  62  59 SE15G22   29.91F
STEVENS POINT  CLOUDY    77  62  59 E13G18    29.93F
WAUPACA        CLOUDY    82  63  52 E12       29.93F HX  83
WAUTOMA        CLOUDY    80  65  59 E12G18    29.91F HX  82
WISC RAPIDS    CLOUDY    79  65  62 SE12      29.92F HX  81
CAMP DOUGLAS   PTSUNNY   82  68  61 E15       29.86F HX  85
$$

WIZ011>013-019>022-031-037>040-048>050-162200-
NORTHEAST WISCONSIN

CITY           SKY/WX    TMP DP  RH WIND       PRES   REMARKS
ANTIGO         MOSUNNY   74  60  63 SE13      29.97F
SHAWANO        CLOUDY    77  62  60 E10       29.95F
OCONTO         MOSUNNY   74  61  63 E8        29.97F
STURGEON BAY   NOT AVBL
GREEN BAY      PTSUNNY   76  68  76 NE12      29.95F
MANITOWOC      SUNNY     74  62  66 SE7       29.97F
APPLETON       MOSUNNY   79  59  50 SE12      29.94F HX  80
CLINTONVILLE   PTSUNNY   77  63  61 E8        29.94F
OSHKOSH        SUNNY     78  66  66 E8        29.93F HX  80
$$

WIZ032>034-041-042-053>061-162200-
SOUTHWEST WISCONSIN

CITY           SKY/WX    TMP DP  RH WIND       PRES   REMARKS
LA CROSSE      CLOUDY    86  69  56 SE10      29.80F HX  90
SPARTA         PTSUNNY   82  67  59 SE10G21   29.85F HX  85
VIROQUA        CLOUDY    80  71  73 E10G18    29.85F HX  83
BOSCOBEL       PTSUNNY   85  69  58 E10G18    29.82F HX  89
PRAIRIE DU CHI LGT RAIN  81  67  63 SE8       29.79F HX  83
PLATTEVILLE    CLOUDY    76  75  99 S13       29.85S
$$

WIZ056-057-062-063-064-067-068-162200-
SOUTH CENTRAL WISCONSIN

CITY           SKY/WX    TMP DP  RH WIND       PRES   REMARKS
REEDSBURG      PTSUNNY   83  69  61 E10       29.86F HX  86
BARABOO/DELLS  PTSUNNY   83  65  54 E13G18    29.87F HX  85
LONE ROCK      MOSUNNY   83  72  69 E10       29.83F HX  88
MINERAL POINT  LGT RAIN  81  72  74 SE9       29.86F HX  84
MADISON        PTSUNNY   83  71  67 E14G23    29.87F HX  87
MIDDLETON      PTSUNNY   85  69  58 E16       29.87F HX  89
WATERTOWN      CLOUDY    81  69  68 E10       29.89F HX  84
MONROE         PTSUNNY   81  68  65 SE13G18   29.86F HX  83
JANESVILLE     PTSUNNY   86  70  58 SE13G18   29.86F HX  90
$$

WIZ051-052-058>065-066-070>072-162200-
SOUTHEAST WISCONSIN

CITY           SKY/WX    TMP DP  RH WIND       PRES   REMARKS
MILWAUKEE      MOSUNNY   77  67  71 E10       29.93F
WAUKESHA       SUNNY     79  64  61 E12G17    29.94F HX  81
MILWAUKEE/TIMM SUNNY     77  61  57 E9        29.95F
RACINE         SUNNY     77  68  73 E9        29.94F
KENOSHA        SUNNY     78  68  71 E12       29.92F HX  80
FOND DU LAC    PTSUNNY   81  64  56 E12       29.92F HX  82
SHEBOYGAN      SUNNY     75  64  68 E10       29.96F
WEST BEND      SUNNY     77  63  61 E8        29.94F
JUNEAU         CLOUDY    79  67  66 E12       29.92F HX  81
$$

LSZ147-162-162200-
LAKE SUPERIOR

STATION/POSITION TIME  TEMP    WIND        PRES    WAVE
                       AIR SEA DIR/SP/G            HT/PER
                 (UTC) (F)     (DEG/KT/KT) (MB)    (FT/S)
W MID LAKE BUOY  2050   62 61   50/ 10/ 12 1014.3F   1/ 3
DEVILS ISLAND    2100   62      60/ 13/ 14 1014.1F
SAXON HARBOR     2040   69      50/ 10/ 11 1012.9F
$$

LMZ867-665-643>646-162200-
LAKE MICHIGAN

STATION/POSITION TIME  TEMP    WIND        PRES    WAVE
                       AIR SEA DIR/SP/G            HT/PER
                 (UTC) (F)     (DEG/KT/KT) (MB)    (FT/S)
S GREEN BAY BUOY 2100   70 72   60/ 12/ 16 1014.8
N MID LAKE BUOY  2050   68 69   60/ 10/ 10 1015.8F   1
NORTHPORT PIER   2040   68      70/  9/ 10 1015.2F
KEWAUNEE LAKESHO 2054   71      60/  2/  5 1014.5F
SHEBOYGAN LAKESH 2100   68      60/  7/  8 1014.1F
PORT WASHINGTON  2040   73      60/  7/ 10 1014.9F
ATWATER BUOY     2009   71 72   70/  8/ 10 1014.6F
MILWAUKEE LAKESH 2100   71      60/  9/ 10   N/A
S MID LAKE BUOY  2050   73 73   50/  8/  8 1013.6F   1
KENOSHA   LAKESH 2100   73      60/  8/ 10 1012.9
$$

TC  - TEMPERATURE IN CELSIUS
VSB - VISIBILITY IN STATUTE MILES
WCI - WIND CHILL INDEX
HX  - HEAT INDEX




USA.gov is the U.S. government's official web portal to all federal, state and local government web resources and services.